Probability
3 3 3 3 6 10 6 6 3 3 3 3 3 3 3 3 3 0 0 0 0 0 0 0 0 0 0 0 0 0 0 0 0 0 0 0 0 3 0 0 0 0 0
6 6 6 6 6 6 6 6 6 3 0 3 3 3 3 0 0 0 0 0 0 0 0 0 0 0 0 0 0 0 0 0 0 0 0 0 0 0 0 0 0 0 0
6 6 6 6 6 6 6 3 3 6 3 3 0 0 0 0 0 0 0 0 0 0 0 0 0 0 0 0 0 0 0 0 0 0 0 0 0 0 0 0 0 0 0
6 10 6 6 6 6 6 6 3 0 3 3 0 0 0 0 0 0 0 0 0 0 0 0 0 0 0 0 0 0 0 0 0 0 0 0 0 0 0 0 0 0 0
6 6 6 6 6 6 6 0 0 0 0 0 0 0 0 0 0 0 0 0 0 0 0 0 0 0 0 0 0 0 0 0 0 0 0 0 0 0 0 0 0 0 0
10 6 6 6 6 6 3 0 0 0 0 0 0 0 0 0 0 0 0 0 0 0 0 0 0 0 0 0 0 0 0 0 0 0 0 0 0 0 0 0 0 0 0
6 10 10 6 6 6 3 0 0 0 0 0 0 0 0 0 0 0 0 0 0 0 0 0 0 0 0 0 0 0 0 0 0 0 0 0 0 0 0 0 0 0 0
6 6 6 10 10 10 3 0 0 0 0 0 0 0 0 0 0 0 0 0 0 0 0 0 0 0 0 0 0 0 0 0 0 0 0 0 0 0 0 0 0 0 0
6 6 6 10 13 10 3 3 3 3 3 3 0 0 0 0 0 0 0 0 0 0 0 0 0 0 0 0 0 0 0 0 0 0 0 0 0 0 0 0 0 0 0
10 10 10 10 10 10 6 6 3 6 3 3 3 0 0 0 0 0 0 0 0 0 0 0 0 0 0 0 0 0 0 0 0 0 0 0 0 0 0 0 0 0 0
13 13 10 6 10 6 6 6 6 6 6 3 3 3 0 0 0 0 0 0 0 0 0 0 0 0 0 0 0 0 0 0 0 0 0 0 0 0 0 0 0 0 0
3 3 6 6 6 6 6 6 6 6 6 6 3 3 0 0 0 0 0 0 0 0 0 0 0 0 0 0 0 0 0 0 0 0 0 0 0 0 0 0 0 0 0
0 3 3 6 6 6 6 6 6 6 6 6 6 3 3 0 0 0 0 0 0 0 0 0 0 0 0 0 0 0 0 0 0 0 0 0 0 0 0 0 0 0 0
0 0 3 3 6 6 6 6 6 3 3 6 6 6 3 0 0 0 0 0 0 0 0 0 0 0 0 0 0 0 0 0 0 0 0 0 0 0 0 0 0 0 0
0 0 3 3 3 6 6 6 3 3 3 3 3 3 3 3 0 0 0 0 0 0 0 0 0 0 0 0 0 0 0 0 0 0 0 0 0 0 0 0 0 0 0
0 0 3 3 3 3 3 3 3 3 0 0 3 3 3 3 0 0 0 0 0 0 0 0 0 0 0 0 0 0 0 0 0 0 0 0 0 0 0 0 0 0 0
3 3 6 3 3 3 3 3 3 0 0 0 0 0 0 0 0 0 0 0 0 0 0 0 0 0 0 0 0 0 0 0 0 0 0 0 0 0 0 0 0 0 0
0 0 3 3 3 3 3 3 3 3 3 0 0 0 0 0 0 0 0 0 0 0 0 0 0 0 0 0 0 0 0 0 0 0 0 0 0 0 0 0 0 0 0
0 3 3 3 3 3 3 3 3 3 3 3 0 0 0 0 0 0 0 0 0 0 0 0 0 0 0 0 0 0 0 0 0 0 0 0 0 0 0 0 0 0 0
0 3 3 3 3 3 3 3 3 3 3 3 0 0 0 0 0 0 0 0 0 0 0 0 0 0 0 0 0 0 0 0 0 0 0 0 0 0 0 0 0 0 0
0 3 3 3 3 3 3 3 3 3 3 0 0 0 0 0 0 0 0 0 0 0 0 0 0 0 0 0 0 0 0 0 0 0 0 0 0 0 0 0 0 0 0
0 3 3 3 3 3 3 3 3 3 0 0 0 0 0 0 0 0 0 0 0 0 0 0 0 0 0 0 0 0 0 0 0 0 0 0 0 0 0 0 0 0 0
0 0 3 3 3 0 0 3 3 0 0 0 0 0 0 0 0 0 0 0 0 0 0 0 0 0 0 0 0 0 0 0 0 0 0 0 0 0 0 0 0 0 0
0 0 0 3 3 0 0 0 0 0 0 0 0 0 0 0 0 0 0 0 0 0 0 0 0 0 0 0 0 0 0 0 0 0 0 0 0 0 0 0 0 0 0
3 0 0 0 0 0 0 0 0 0 0 0 0 0 0 0 0 0 0 0 0 0 0 0 0 0 0 0 0 0 0 0 0 0 0 0 0 0 0 0 0 0 0
3 3 3 0 0 0 0 0 0 0 0 0 0 0 0 0 0 0 0 0 0 0 0 0 0 0 0 0 0 0 0 0 0 0 0 0 0 0 0 0 0 0 0
Height
5804 5804 5804 5803 5803 5803 5802 5801 5800 5799 5798 5797 5795 5794 5792 5791 5789 5788 5787 5786 5785 5784 5783 5782 5782 5781 5781 5780 5780 5780 5779 5779 5779 5779 5778 5778 5778 5777 5777 5777 5777 5777 5777
5800 5799 5799 5798 5798 5798 5797 5796 5795 5794 5793 5792 5791 5789 5788 5786 5785 5784 5782 5781 5780 5779 5778 5778 5777 5776 5776 5775 5775 5774 5774 5774 5774 5773 5773 5772 5771 5771 5771 5770 5770 5770 5770
5796 5795 5795 5794 5794 5793 5792 5791 5790 5789 5788 5787 5785 5784 5783 5781 5780 5779 5778 5776 5775 5774 5773 5772 5772 5771 5771 5770 5769 5769 5768 5768 5768 5768 5767 5766 5765 5764 5764 5764 5763 5763 5763
5791 5791 5790 5790 5789 5789 5788 5787 5786 5784 5783 5782 5780 5778 5778 5776 5775 5774 5773 5771 5770 5769 5768 5767 5766 5765 5765 5764 5764 5764 5763 5763 5762 5762 5761 5760 5759 5758 5757 5757 5757 5756 5755
5787 5786 5786 5785 5784 5784 5783 5782 5780 5779 5778 5777 5775 5774 5772 5771 5769 5768 5767 5765 5764 5763 5762 5761 5760 5759 5759 5758 5758 5758 5757 5757 5756 5756 5755 5754 5753 5751 5750 5750 5749 5749 5748
5782 5781 5781 5780 5779 5778 5777 5776 5775 5774 5773 5771 5770 5768 5767 5765 5763 5762 5761 5759 5758 5757 5756 5755 5754 5753 5752 5752 5752 5751 5751 5751 5750 5749 5748 5747 5746 5744 5743 5742 5742 5741 5741
5777 5776 5775 5774 5774 5773 5772 5771 5769 5768 5767 5766 5764 5763 5761 5759 5757 5755 5754 5753 5752 5750 5749 5748 5747 5747 5746 5745 5745 5745 5744 5744 5743 5742 5741 5740 5739 5737 5736 5735 5734 5733 5733
5771 5771 5770 5769 5768 5767 5766 5765 5763 5762 5761 5759 5758 5757 5755 5753 5751 5749 5747 5746 5745 5744 5742 5742 5741 5740 5739 5739 5738 5738 5738 5737 5736 5735 5734 5733 5731 5730 5729 5728 5727 5726 5725
5765 5764 5764 5764 5763 5762 5760 5759 5757 5756 5755 5753 5752 5750 5748 5746 5744 5742 5740 5739 5738 5737 5736 5735 5734 5734 5733 5732 5732 5732 5731 5730 5729 5728 5727 5726 5724 5723 5722 5721 5720 5719 5718
5759 5759 5758 5757 5757 5756 5755 5753 5751 5750 5748 5747 5745 5743 5741 5739 5738 5736 5734 5733 5732 5730 5730 5729 5728 5727 5727 5726 5725 5725 5725 5724 5723 5722 5720 5719 5718 5716 5715 5714 5713 5712 5711
5753 5752 5752 5751 5750 5749 5748 5747 5745 5744 5742 5740 5739 5737 5735 5733 5731 5730 5728 5727 5726 5725 5724 5723 5722 5721 5720 5720 5719 5719 5718 5717 5716 5715 5713 5712 5710 5709 5708 5707 5706 5705 5704
5746 5745 5745 5744 5743 5742 5741 5740 5739 5737 5736 5734 5733 5731 5729 5727 5726 5724 5722 5721 5720 5719 5718 5717 5716 5715 5715 5714 5713 5712 5711 5710 5709 5708 5707 5705 5704 5702 5701 5701 5700 5699 5697
5740 5739 5738 5738 5737 5735 5734 5733 5732 5730 5729 5728 5726 5725 5723 5721 5720 5718 5717 5715 5714 5713 5712 5711 5711 5710 5709 5708 5707 5706 5705 5704 5703 5702 5700 5699 5697 5696 5695 5694 5693 5692 5691
5733 5732 5732 5731 5730 5729 5728 5726 5725 5723 5722 5721 5719 5718 5716 5715 5713 5712 5711 5710 5709 5707 5706 5706 5705 5704 5703 5702 5701 5700 5699 5697 5696 5695 5694 5692 5690 5689 5689 5688 5687 5685 5684
5727 5726 5726 5725 5723 5722 5721 5719 5718 5716 5715 5714 5712 5711 5710 5709 5707 5705 5704 5703 5702 5701 5700 5699 5699 5698 5697 5696 5695 5693 5692 5691 5690 5688 5687 5685 5684 5683 5682 5681 5680 5679 5678
5721 5720 5719 5718 5717 5715 5714 5712 5710 5709 5708 5706 5705 5704 5703 5702 5700 5699 5697 5697 5696 5695 5694 5693 5692 5692 5691 5690 5689 5688 5686 5684 5683 5682 5680 5678 5677 5676 5675 5674 5673 5671 5670
5713 5713 5712 5711 5710 5708 5707 5705 5704 5702 5700 5699 5698 5696 5696 5694 5693 5692 5690 5689 5688 5688 5687 5687 5686 5686 5685 5684 5683 5682 5680 5678 5677 5675 5673 5672 5670 5669 5668 5666 5665 5663 5662
5706 5706 5705 5704 5703 5702 5700 5698 5697 5695 5693 5692 5690 5689 5688 5687 5686 5685 5683 5682 5681 5681 5680 5680 5680 5679 5678 5677 5676 5675 5673 5672 5670 5668 5666 5665 5663 5662 5660 5659 5657 5655 5654
5699 5699 5698 5697 5696 5695 5693 5692 5690 5688 5686 5684 5683 5682 5681 5680 5679 5678 5677 5676 5675 5674 5674 5673 5673 5672 5671 5670 5669 5667 5666 5664 5663 5661 5660 5658 5656 5654 5653 5651 5649 5647 5645
5692 5692 5691 5690 5689 5688 5686 5685 5683 5681 5679 5678 5677 5676 5675 5674 5673 5672 5671 5670 5669 5668 5667 5666 5666 5665 5663 5662 5661 5659 5658 5657 5655 5654 5652 5651 5649 5647 5645 5643 5641 5639 5637
5685 5684 5684 5683 5682 5681 5680 5678 5677 5675 5673 5672 5671 5670 5669 5668 5667 5666 5665 5664 5663 5662 5660 5659 5658 5657 5655 5654 5652 5651 5650 5648 5647 5646 5645 5643 5641 5639 5637 5635 5633 5631 5628
5678 5677 5676 5676 5674 5673 5672 5671 5670 5668 5667 5666 5665 5664 5663 5662 5661 5660 5659 5658 5656 5655 5654 5652 5650 5649 5647 5645 5644 5642 5641 5640 5639 5638 5637 5635 5634 5632 5630 5627 5625 5623 5621
5670 5669 5669 5668 5667 5666 5665 5664 5663 5661 5660 5659 5658 5657 5656 5655 5655 5653 5652 5651 5649 5648 5646 5645 5643 5641 5639 5637 5636 5635 5634 5633 5632 5630 5629 5628 5626 5624 5622 5620 5618 5616 5614
5662 5662 5661 5659 5658 5657 5656 5656 5655 5654 5653 5652 5651 5650 5649 5648 5647 5646 5645 5643 5642 5640 5638 5637 5635 5633 5631 5629 5628 5626 5625 5625 5624 5623 5622 5620 5619 5617 5615 5613 5612 5609 5607
5655 5654 5653 5652 5651 5650 5649 5648 5647 5646 5646 5645 5644 5643 5642 5641 5640 5638 5637 5635 5634 5632 5630 5629 5627 5625 5624 5622 5620 5619 5618 5617 5616 5615 5614 5612 5611 5610 5608 5606 5604 5602 5600
5647 5646 5645 5644 5643 5643 5642 5641 5640 5639 5638 5638 5637 5636 5635 5633 5632 5630 5629 5627 5625 5624 5622 5620 5618 5617 5615 5614 5613 5611 5610 5609 5608 5608 5606 5605 5604 5602 5601 5599 5597 5595 5593
Wind_Speed
16 16 16 16 15 15 15 15 16 16 16 16 15 16 16 16 15 15 14 14 15 15 15 15 15 16 16 17 18 18 18 17 17 17 18 19 20 21 22 22 23 23 24
16 15 14 15 15 15 16 16 16 16 16 16 16 16 17 16 15 15 14 14 15 15 15 16 16 16 16 17 17 18 18 17 17 17 17 18 20 21 21 21 22 24 25
15 15 14 15 15 16 16 16 17 17 17 17 17 17 17 16 16 15 15 15 16 16 16 16 17 17 17 17 17 17 17 18 17 17 18 18 19 20 21 22 22 24 25
15 15 15 15 16 16 16 17 17 17 17 17 17 18 18 18 18 17 17 17 17 17 17 17 18 18 18 19 18 18 18 18 18 19 19 19 20 20 21 21 22 23 24
15 15 15 15 15 16 17 17 17 17 17 18 18 18 18 18 19 19 19 19 19 19 18 19 19 19 19 19 19 19 19 19 19 20 20 20 20 21 22 22 23 23 24
15 15 15 15 16 17 17 17 18 18 18 19 19 19 19 19 19 20 20 19 20 20 20 20 20 20 19 20 20 20 20 20 21 21 21 22 22 22 23 23 23 23 23
15 16 16 16 17 18 18 18 19 19 20 20 20 20 20 20 20 20 20 20 21 21 21 21 20 20 20 20 20 21 21 22 23 22 23 22 22 22 23 23 23 23 24
16 16 16 16 17 18 18 19 20 20 21 21 21 21 21 21 21 21 20 20 20 20 20 20 20 20 21 20 21 22 22 22 23 23 22 23 23 23 22 23 23 23 24
18 16 16 17 18 18 18 19 20 20 20 20 21 21 21 21 21 21 21 20 20 19 19 19 20 20 20 20 21 21 22 22 22 22 23 23 23 23 23 23 22 23 23
17 17 18 19 19 19 19 19 20 20 20 20 20 21 22 21 21 21 20 20 19 19 19 19 19 19 19 20 21 21 22 22 22 22 22 23 22 23 23 23 23 23 23
19 20 19 19 19 19 19 20 20 20 20 20 20 21 20 20 20 19 19 19 19 20 20 20 19 19 19 20 20 21 21 21 21 22 22 23 22 22 23 23 22 23 23
19 19 19 20 19 19 19 20 21 21 21 21 20 19 19 19 19 19 19 19 19 19 19 19 19 19 19 20 20 20 21 21 21 21 22 22 21 21 21 21 21 21 21
20 20 20 20 20 20 20 21 21 21 21 21 20 20 19 20 20 20 19 18 18 18 18 18 19 19 19 19 20 20 21 21 21 21 21 21 21 20 21 21 21 21 22
20 20 20 20 21 21 21 21 21 21 21 21 21 21 21 21 20 20 20 19 19 19 19 19 20 20 20 20 20 20 21 21 21 22 22 22 21 21 21 21 21 22 22
20 21 21 21 21 21 20 21 21 21 21 21 21 21 20 20 20 20 20 20 20 20 19 19 20 20 20 19 19 20 20 21 21 22 22 22 22 22 22 22 22 22 22
22 21 20 20 21 21 21 21 20 21 22 22 22 21 21 21 21 21 21 21 21 20 20 20 20 20 20 20 20 20 20 21 21 22 22 22 22 22 23 23 23 23 24
21 20 20 20 20 21 21 21 20 21 22 22 22 22 22 22 22 22 22 22 22 21 21 20 20 21 21 21 21 21 21 22 22 22 22 22 23 23 23 24 24 25 25
20 21 21 21 21 21 21 21 21 21 22 22 22 22 23 23 22 21 21 21 21 21 21 21 21 21 22 22 22 23 23 23 23 23 23 23 23 23 24 25 25 26 26
21 21 21 21 21 21 21 21 21 21 21 21 21 21 21 20 20 20 19 19 19 19 20 21 22 22 23 24 24 24 24 24 24 24 24 24 24 24 24 25 26 26 26
21 21 21 22 22 22 21 21 21 21 20 20 20 19 19 18 18 18 18 18 18 18 19 20 21 22 23 24 25 25 25 25 25 24 24 24 24 24 25 25 25 25 25
22 22 23 23 23 23 23 22 22 22 21 20 20 19 19 18 18 18 18 19 19 19 19 20 21 23 24 24 24 24 24 24 24 23 23 24 24 25 25 25 25 25 24
22 23 23 23 23 24 23 23 23 22 21 21 20 19 20 20 20 19 19 20 20 20 21 21 22 23 23 23 23 23 23 23 23 23 23 23 23 23 24 24 24 23 23
23 23 23 24 24 24 24 23 23 23 22 22 21 21 21 21 21 21 21 22 22 23 23 24 24 24 23 22 22 23 23 23 23 23 23 23 23 23 23 23 22 22 22
23 23 24 24 24 24 23 23 22 22 23 23 23 23 22 22 22 22 23 23 24 24 25 25 25 24 23 23 22 22 23 23 23 23 23 23 23 23 22 22 22 21 22
24 24 24 23 23 23 23 23 23 23 23 23 23 23 23 23 24 24 24 25 25 25 25 25 25 24 23 22 22 22 22 22 23 23 23 23 23 22 22 22 22 22 22
24 24 24 23 22 22 22 22 23 23 23 22 23 23 24 24 25 25 25 25 25 24 25 25 25 23 23 22 22 22 22 22 22 22 23 22 21 21 22 22 22 22 22
Wind_Direction
276 276 275 272 273 275 278 279 279 280 283 285 286 290 291 291 290 286 284 281 275 273 273 272 271 272 271 269 268 268 269 271 273 270 270 270 269 267 267 267 265 263 263
278 275 273 271 271 275 279 280 281 283 283 283 285 287 289 288 286 283 284 283 279 276 274 272 272 273 274 273 270 270 270 270 274 274 273 272 270 269 269 268 268 267 264
278 274 272 272 273 277 280 281 283 285 285 284 284 286 286 285 284 282 284 283 281 280 278 274 272 271 271 272 271 272 273 275 276 276 276 276 273 272 271 269 269 270 267
274 272 273 274 275 277 281 282 283 285 286 286 287 287 285 285 284 281 282 284 282 281 279 277 275 273 271 270 269 270 273 275 278 280 279 278 277 276 274 272 272 272 270
273 271 273 274 277 280 282 283 284 285 286 287 289 287 286 284 283 283 282 281 280 279 278 278 277 276 274 271 269 269 272 276 279 280 279 279 279 277 275 273 274 274 273
272 270 274 277 281 283 283 283 282 284 285 286 286 286 286 287 286 284 282 280 278 277 277 277 277 276 274 271 269 270 272 275 279 280 278 280 280 279 277 276 275 274 273
272 272 273 276 279 282 286 284 283 284 285 287 288 287 288 288 286 284 282 281 280 278 277 277 276 275 274 272 270 270 272 275 278 278 278 279 279 279 279 277 276 275 272
270 273 275 275 277 280 284 285 285 286 286 286 287 287 287 288 288 284 284 284 282 279 278 276 275 274 272 271 270 270 272 275 276 277 278 279 280 281 279 278 278 277 276
270 273 273 275 279 283 285 286 287 288 289 289 289 288 287 287 287 287 285 284 282 280 278 276 275 273 272 271 271 273 274 275 276 277 278 280 281 280 279 278 279 280 279
271 272 272 275 278 281 283 285 286 288 291 293 293 292 290 288 288 286 284 283 281 280 278 277 275 273 272 271 272 273 274 276 277 279 281 282 281 279 278 277 278 279 279
273 273 272 273 276 279 281 283 285 287 289 292 293 293 292 291 289 286 283 282 281 280 278 276 275 275 272 272 272 273 276 277 279 280 282 283 282 278 277 277 277 277 277
273 273 271 273 277 280 283 285 285 286 288 289 290 290 290 290 289 287 285 283 282 280 278 278 278 277 274 275 274 275 277 277 279 281 282 283 282 279 277 278 277 278 278
271 273 275 277 278 281 284 285 285 285 285 287 288 287 287 288 288 287 285 283 283 281 279 278 279 279 276 276 275 276 278 279 280 281 283 284 283 280 278 279 279 279 280
271 274 276 277 280 283 285 285 284 283 284 286 285 283 285 286 285 285 283 283 284 283 281 280 280 281 278 279 278 277 278 281 281 282 282 283 282 279 278 280 280 280 281
275 277 277 278 280 281 282 285 285 284 284 284 281 280 280 283 284 284 283 280 280 279 279 280 281 281 280 279 281 281 282 282 284 284 283 283 283 280 279 280 280 280 281
273 275 275 279 281 282 282 284 284 284 285 283 282 279 279 280 281 280 281 280 278 277 277 278 278 279 280 281 283 285 287 287 286 287 286 284 284 282 279 279 279 280 281
271 272 275 278 282 284 284 284 284 285 286 284 283 281 281 280 279 280 279 278 277 276 276 277 278 278 279 281 284 286 289 289 290 290 290 288 286 284 282 281 281 282 283
271 272 274 277 281 282 283 283 285 286 286 285 284 282 282 281 278 279 279 278 277 275 275 276 277 279 280 281 282 284 286 289 290 290 291 290 288 286 284 283 283 285 285
273 274 275 277 279 281 283 283 286 288 287 284 282 281 281 282 280 280 280 278 277 277 276 275 277 280 282 282 282 283 284 286 287 289 289 288 288 288 287 286 286 286 286
276 276 276 277 279 282 283 283 284 287 288 285 281 279 279 281 282 283 281 280 279 279 281 281 281 282 283 284 284 283 283 283 285 287 288 288 288 289 290 290 289 288 287
275 275 274 275 277 279 282 283 283 284 285 283 281 279 279 279 281 283 283 282 282 284 285 285 286 287 287 286 285 283 282 283 283 284 286 287 288 290 291 291 290 289 287
274 273 273 274 276 278 280 281 282 282 282 280 278 277 277 279 282 283 283 282 282 284 287 288 289 289 289 289 287 284 283 283 283 283 285 287 289 291 292 293 293 291 290
273 275 276 276 277 278 279 280 279 279 279 278 276 275 277 280 281 283 283 283 284 284 286 287 287 288 289 291 288 285 284 283 283 284 286 287 289 290 292 293 293 292 292
274 275 278 279 279 279 279 278 277 277 277 276 276 278 279 281 282 282 282 282 284 285 285 286 287 287 288 290 287 284 283 282 282 283 286 287 287 289 290 292 293 293 294
275 277 278 279 279 278 278 278 278 277 278 278 277 278 280 281 281 281 281 282 283 284 284 284 285 286 288 287 285 283 283 283 282 283 286 287 287 287 289 291 291 292 294
275 275 276 277 278 278 279 279 279 277 278 280 279 279 281 283 284 282 282 283 284 284 283 284 284 284 286 286 284 283 281 281 281 282 285 286 286 287 288 290 291 291 292